カタログに戻る

STARLINK-35361

運用中通信SSO
NORAD 65667·PAYLOAD·🇺🇸 United States

打ち上げ Sep 19, 2025 から Vandenberg Space Force Base

Loading…

次のパス (今後24時間)

TLE

最新Source: CelesTrak SupGP

元期: Sep 14, 2026, 15:17 UTC

1 65667C 25211R   26257.63729167 -.00046807  00000+0 -14530-2 0  2572
2 65667  97.2838 297.8791 0001327  99.1885 125.8580 15.33463819    18

AllMySatでSTARLINK-35361をリアルタイム追跡

Download on the App Store